Location: Beuerbach
(48.1459°N, 10.9174°E)
Time: 02:12:52
(UTC+00:00)

Cosmos 1953 - Pass Details

Date: 23 May 2024
Orbit: 510 x 531 km, 82.5° (Epoch: 19 June)

Event Time Altitude Azimuth Distance (km) Brightness Sun altitude
Rises 00:59:24 0° 345° (NNW) 2,685 6.6 -17.2°
Reaches altitude 10° 01:01:36 10° 341° (NNW) 1,787 5.5 -17.0°
Maximum altitude 01:05:24 49° 266° (W) 684 2.5 -16.8°
Enters shadow 01:06:32 36° 216° (SW) 845 2.7 -16.7°
